Showing default

HAWK-13C, 67393

Orbit data source: Space-Track

HAWK-13C, 67393 is a payload satellite owned by HawkEye 360 (US) in SSO that was launched on Sun, 11 Jan 2026 UTC via an FALCON 9 launch vehicle from the Air Force Western Test Range (AFWTR). Payload-class satellites include a variety of spacecraft equipped with specific instruments for various scientific and technological missions. These include communications satellites like Starlink; space stations such as the ISS; scientific satellites like the Hubble; Earth observation satellites from companies like Planet Labs, Umbra, and HawkEye 360; GPS; miniature CubeSats for education and research; and military/defense satellites.

Loading next visibility...
Identifier
67393, 2026-004AG
Orbit
SSO
Country
Flag of USUS
Related business
Manufacturer
UTIAS-SFL
Mission
Operational Commercial Sigint
Bus & Motor
HAWK2G, Unknown motor
Mass
31 kg wet, 30 kg dry
Launch date (UTC)
2026-01-11 (4 months ago)
Launch vehicle
FALCON 9
Launch site
Air Force Western Test Range (AFWTR)
Object type
Payload
Rocket body
Debris
Shape & HBR
Box + 2 Pan, 1.0 m
Radar Cross Section
0.240 m²

Expand to show TLE details & history
Last TLE update: 5 hours ago

TLE from 5 hours ago
0 HAWK-13C
1 67393U 26004AG  26146.58819155  .00004465  00000-0  21697-3 0  9998
2 67393  97.4580 146.1037 0007062  62.2562 297.9388 15.18931179 20488
Epoch: 2026-05-26T14:06Z
TLE epoch observation values (Epoch: 2026-05-26T14:06:59.749Z)
Latitude
-0.00004°
Longitude
50.19527°
Altitude
509.88 km
Speed
7.61 km/s
True Right ascension
09h 44m 24s
True Declination
0° 00' 00"
Sunlit
Object was in daylight at epoch
Visualization orbit readout
Latitude
Unknown
Longitude
Unknown
Altitude
Unknown
Speed
Unknown
Apparent Right ascension
Unknown
Apparent Declination
Unknown
Sunlit
N/A
Visualization observer readout
Local Sidereal Time
04:33:04
Azimuth
Unknown
Elevation
Unknown
Doppler factor
Unknown
Orbital elements
Apogee altitude
510.901 km
Perigee altitude
501.177 km
Semi-major axis
6,884.176 km
Eccentricity
0.00071
Inclination
97.458°
RAAN
146.1037°
Arg. of periapsis
62.2562°
True anomaly
297.86728°
Mean anomaly
297.9388°
Eccentric anomaly
297.90304°
Mean motion
3.79984 °/min
Orbital period
94.74 mins
BSTAR
0.00021697
Loading maneuver chart data...
Computing Atmospheric mass density...
Loading historical data...
Loading historical data...
Loading historical data...
Loading historical data...
Loading historical data...
Loading historical data...
Loading historical data...

Documentation

Showing up to 5 results
|